Regional Weather Roundup
Issued by NWS

Home | Current Version | Previous Version | Text Only | Print | Product List | Glossary On
Versions: 1 2 3 4 5 6 7 8 9 10 11 12 13 14 15 16 17 18 19 20 21 22 23 24 25 26 27 28 29 30 31 32 33 34 35 36 37 38 39 40 41 42 43 44 45 46 47 48 49 50
000
ASUS45 KREV 281410
RWRNV
NEVADA REGIONAL WEATHER ROUNDUP
NATIONAL WEATHER SERVICE RENO NV
700 AM PDT SAT MAR 28 2015

NOTE: "FAIR" INDICATES FEW OR NO CLOUDS BELOW 12,000 FEET WITH NO
SIGNIFICANT WEATHER AND/OR OBSTRUCTIONS TO VISIBILITY.

NVZ001-003-004-281500-
WESTERN NEVADA

CITY           SKY/WX    TMP DP  RH WIND       PRES   REMARKS
RENO           PTCLDY    45  30  55 S8        30.26R
CARSON CITY    FAIR      43  28  56 CALM      30.26R
MINDEN         FAIR      36  23  60 S8        30.27
SLIDE MTN        N/A     34  19  55 W22         N/A
PYRAMID LAKE     N/A     55 N/A N/A N6          N/A
FALLON         MOCLDY    39  24  55 SW5       30.23R
LOVELOCK       MOCLDY    38  23  55 CALM      30.22R
HAWTHORNE      CLEAR     48  32  53 CALM      30.24R
$$

NVZ002-CAZ072-073-281500-
NORTHERN AND CENTRAL SIERRA

CITY           SKY/WX    TMP DP  RH WIND       PRES   REMARKS
S. LAKE TAHOE  CLEAR     37  27  67 CALM      30.30R
TRUCKEE        CLEAR     28  27  93 CALM      30.32R
SQUAW VLY 8000   N/A     37  28  70 SW2         N/A
SUSANVILLE     CLEAR     37  34  87 CALM      30.28
BLUE CANYON    PTCLDY    51  21  30 NE6       30.27S
MAMMOTH LAKES  FAIR      23  18  80 CALM      30.31S
BRIDGEPORT     FAIR      39  16  39 CALM      30.30R
$$

NVZ030-031-036-281500-
NORTHERN NEVADA

CITY           SKY/WX    TMP DP  RH WIND       PRES   REMARKS
ELKO           CLEAR     35  25  66 SW5       30.20R
WINNEMUCCA     MOCLDY    51  25  36 VRB5      30.21R
WENDOVER       PTCLDY    45  27  49 CALM      30.11R
$$

NVZ035-037-281500-
CENTRAL NEVADA

CITY           SKY/WX    TMP DP  RH WIND       PRES   REMARKS
ELY            CLEAR     34  18  52 S9        30.23S
EUREKA           N/A     34  18  52 SW5       30.24R
$$

NVZ013-014-281500-
SOUTH CENTRAL NEVADA

CITY           SKY/WX    TMP DP  RH WIND       PRES   REMARKS
TONOPAH        CLEAR     41  19  41 N10       30.23R
$$

NVZ017-020-022-281500-
SOUTHERN NEVADA

CITY           SKY/WX    TMP DP  RH WIND       PRES   REMARKS
LAS VEGAS      CLEAR     64  26  23 SW7       30.04R
N. LAS VEGAS   CLEAR     59  25  27 N5        30.07R
NELLIS AFB     CLEAR     56  25  30 N3        30.07R
HENDERSON      CLEAR     64  25  22 SW13      30.10R
MERCURY        CLEAR     48  23  37 CALM      30.11R
$$



USA.gov is the U.S. government's official web portal to all federal, state and local government web resources and services.